Location: Unspecified
(0.0000°N, 0.0000°E)
Time: 02:06:45
(UTC+00:00)

Tiros 1 despin weight - Pass Details

Date: 01 October 2020
Orbit: 594 x 641 km, 48.2° (Epoch: 25 October)

Event Time Altitude Azimuth Distance (km) Brightness Sun altitude
Rises 19:55:39 0° 306° (NW) 2,925 ? -31.5°
Reaches altitude 10° 19:58:07 10° 298° (WNW) 2,021 ? -32.1°
Enters shadow 20:01:03 30° 267° (W) 1,147 ? -32.8°
